EW5196 Weather Reports


time (UTC)temp
F
wind
direction
speed
knots
gust
knots
rain 1hr
in
rain 24hr
in
rain mn
in
humidity
%
barometer
mb
20260903155846 89 48 0.9 5.2 0.00 0.00 0.00 69 1018.9
20260903155341 88 229 1.7 1.7 0.00 0.00 0.00 70 1018.9
20260903154836 89 146 2.6 3.5 0.00 0.00 0.00 71 1019.1
20260903154333 89 156 1.7 3.5 0.00 0.00 0.00 67 1019.1
20260903153827 89 271 1.7 1.7 0.00 0.00 0.00 67 1018.8
20260903153323 89 239 1.7 5.2 0.00 0.00 0.00 68 1019.0
20260903152820 89 284 0.9 4.3 0.00 0.00 0.00 69 1019.1
20260903152315 88 3 0.0 1.7 0.00 0.00 0.00 69 1019.0
20260903151810 88 235 1.7 2.6 0.00 0.00 0.00 70 1019.0
20260903151306 87 175 0.0 3.5 0.00 0.00 0.00 70 1019.0
20260903150805 87 278 1.7 3.5 0.00 0.00 0.00 70 1018.8
20260903150300 87 154 1.7 2.6 0.00 0.00 0.00 72 1019.1
20260903145755 87 236 0.9 4.3 0.00 0.00 0.00 72 1018.9
20260903145250 87 168 0.9 1.7 0.00 0.00 0.00 73 1019.1
20260903144749 87 22 0.0 3.5 0.00 0.00 0.00 72 1019.0
20260903144245 87 29 0.9 2.6 0.00 0.00 0.00 72 1018.9
20260903143740 87 299 2.6 3.5 0.00 0.00 0.00 72 1018.6
20260903143237 86 233 1.7 2.6 0.00 0.00 0.00 73 1018.8
20260903142732 86 209 1.7 4.3 0.00 0.00 0.00 73 1018.8
20260903142228 86 156 1.7 2.6 0.00 0.00 0.00 72 1018.7
20260903141724 86 237 2.6 4.3 0.00 0.00 0.00 72 1018.8
20260903141219 86 253 1.7 2.6 0.00 0.00 0.00 72 1018.5
20260903140714 85 207 1.7 1.7 0.00 0.00 0.00 73 1018.4
20260903140209 85 260 0.0 1.7 0.00 0.00 0.00 74 1018.4
20260903135705 85 134 0.0 1.7 0.00 0.00 0.00 74 1018.5
20260903135200 84 339 0.0 1.7 0.00 0.00 0.00 78 1018.3
20260903134658 83 113 0.9 1.7 0.00 0.00 0.00 79 1018.4
20260903134155 82 147 0.0 0.9 0.00 0.00 0.00 79 1018.3
20260903133652 82 190 0.9 0.9 0.00 0.00 0.00 81 1018.3
20260903133148 82 154 0.0 0.0 0.00 0.00 0.00 84 1018.5
20260903132643 81 154 0.0 1.7 0.00 0.00 0.00 83 1018.5
20260903132143 81 279 0.0 0.9 0.00 0.00 0.00 84 1018.7
20260903131637 80 159 0.0 0.0 0.00 0.00 0.00 86 1018.6
20260903131137 79 345 0.0 0.9 0.00 0.00 0.00 87 1018.8
20260903130632 79 159 0.0 1.7 0.00 0.00 0.00 89 1018.9
20260903130126 78 49 0.0 0.0 0.00 0.00 0.00 90 1018.7
20260903125624 77 184 0.0 0.0 0.00 0.00 0.00 94 1018.9
20260903125120 77 174 0.0 0.9 0.00 0.00 0.00 95 1019.1
20260903124619 76 235 0.0 0.0 0.00 0.00 0.00 98 1019.1
20260903124114 76 172 0.0 1.7 0.00 0.00 0.00 99 1019.2
20260903123614 76 184 0.0 1.7 0.00 0.00 0.00 99 1019.2
20260903123112 75 153 1.7 1.7 0.00 0.00 0.00 99 1019.1
20260903122607 75 159 0.0 0.9 0.00 0.00 0.00 99 1018.9
20260903122106 75 167 0.0 0.9 0.00 0.00 0.00 99 1018.9
20260903121601 75 239 0.0 0.9 0.00 0.00 0.00 99 1019.3
20260903121056 75 172 0.0 0.9 0.00 0.00 0.00 99 1019.0
20260903120555 74 176 0.0 0.9 0.00 0.00 0.00 99 1019.1
20260903120050 74 162 0.9 0.9 0.00 0.00 0.00 99 1018.8
20260903115548 74 174 0.9 0.9 0.00 0.00 0.00 99 1018.9
20260903115044 74 143 0.0 0.0 0.00 0.00 0.00 99 1019.0
20260903114538 74 164 0.0 0.9 0.00 0.00 0.00 99 1019.0
20260903114034 73 155 0.0 0.9 0.00 0.00 0.00 99 1018.9
20260903113530 73 159 0.0 0.0 0.00 0.00 0.00 99 1018.8
20260903113026 73 147 0.0 0.0 0.00 0.00 0.00 99 1018.8
20260903112521 73 147 0.0 0.0 0.00 0.00 0.00 99 1018.6
20260903112021 73 164 0.0 0.9 0.00 0.00 0.00 99 1018.8
20260903111520 73 160 0.9 0.9 0.00 0.00 0.00 99 1018.9
20260903111017 73 159 0.0 0.9 0.00 0.00 0.00 99 1018.6
20260903110513 73 133 0.0 0.0 0.00 0.00 0.00 99 1018.7
20260903110007 73 159 0.0 0.0 0.00 0.00 0.00 99 1018.3
20260903105501 73 149 0.9 1.7 0.00 0.00 0.00 99 1018.4
20260903104956 73 147 0.9 0.9 0.00 0.00 0.00 99 1018.5
20260903104455 73 161 0.0 0.9 0.00 0.00 0.00 99 1018.3
20260903103952 73 96 0.0 0.9 0.00 0.00 0.00 99 1018.5
20260903103448 73 146 0.0 0.9 0.00 0.00 0.00 99 1018.4
20260903102943 73 145 0.0 0.9 0.00 0.00 0.00 99 1018.4
20260903102439 73 147 0.9 1.7 0.00 0.00 0.00 99 1018.4
20260903101937 73 124 0.9 0.9 0.00 0.00 0.00 99 1018.5
20260903101432 73 95 0.9 0.9 0.00 0.00 0.00 99 1018.4
20260903100928 73 160 0.0 0.0 0.00 0.00 0.00 99 1018.5
20260903100423 73 177 0.9 1.7 0.00 0.00 0.00 99 1018.4
20260903095920 73 213 0.0 2.6 0.00 0.00 0.00 99 1018.5
20260903095415 73 188 0.9 1.7 0.00 0.00 0.00 99 1018.3
20260903094910 74 163 0.9 1.7 0.00 0.00 0.00 99 1018.5
20260903094409 74 151 1.7 1.7 0.00 0.00 0.00 99 1018.3
20260903093905 74 159 0.0 0.9 0.00 0.00 0.00 99 1018.3
20260903093354 74 92 0.0 0.0 0.00 0.00 0.00 99 1018.4
20260903092850 74 156 0.0 0.9 0.00 0.00 0.00 99 1018.3
20260903092344 74 147 0.0 0.0 0.00 0.00 0.00 99 1018.3
20260903091843 74 59 0.0 0.0 0.00 0.00 0.00 99 1018.3
20260903091342 74 184 0.0 0.0 0.00 0.00 0.00 99 1018.2
20260903090837 74 165 0.0 0.0 0.00 0.00 0.00 99 1018.1
20260903090332 74 145 0.9 0.9 0.00 0.00 0.00 99 1018.2
20260903085830 74 152 1.7 1.7 0.00 0.00 0.00 99 1017.8
20260903085330 74 135 0.9 1.7 0.00 0.00 0.00 98 1017.9
20260903084829 74 149 0.9 1.7 0.00 0.00 0.00 99 1017.8
20260903084328 74 95 0.0 0.9 0.00 0.00 0.00 98 1017.8
20260903083823 74 79 0.0 0.9 0.00 0.00 0.00 98 1017.9
20260903083319 74 150 0.0 0.9 0.00 0.00 0.00 98 1017.8
20260903082818 74 157 0.0 0.9 0.00 0.00 0.00 98 1017.8
20260903082313 74 85 0.0 0.0 0.00 0.00 0.00 98 1017.8
20260903081809 74 123 0.0 0.9 0.00 0.00 0.00 98 1017.9
20260903081304 74 85 0.0 0.9 0.00 0.00 0.00 98 1018.0
20260903080801 74 85 0.0 0.9 0.00 0.00 0.00 98 1018.0
20260903080258 74 148 0.9 0.9 0.00 0.00 0.00 98 1018.1
20260903075757 74 161 0.0 0.9 0.00 0.00 0.00 98 1018.2
20260903075252 74 124 0.9 0.9 0.00 0.00 0.00 98 1018.1
20260903074751 74 149 0.9 1.7 0.00 0.00 0.00 98 1018.1
20260903074246 75 153 0.9 1.7 0.00 0.00 0.00 98 1018.3
20260903073741 75 151 0.9 1.7 0.00 0.00 0.00 98 1018.2
20260903073237 75 157 0.9 1.7 0.00 0.00 0.00 98 1018.1
20260903072733 75 170 0.9 1.7 0.00 0.00 0.00 98 1018.3
20260903072229 75 158 0.9 1.7 0.00 0.00 0.00 98 1018.3
20260903071725 75 129 1.7 1.7 0.00 0.00 0.00 98 1018.2
20260903071221 75 108 0.0 0.9 0.00 0.00 0.00 98 1018.2
20260903070720 75 143 0.0 0.9 0.00 0.00 0.00 98 1018.4
20260903070216 75 150 0.9 1.7 0.00 0.00 0.00 98 1018.2
20260903065711 75 154 0.0 0.9 0.00 0.00 0.00 98 1018.3
20260903065205 75 163 1.7 1.7 0.00 0.00 0.00 98 1018.2
20260903064704 75 168 0.9 1.7 0.00 0.00 0.00 98 1018.4
20260903064200 75 210 0.0 0.0 0.00 0.00 0.00 98 1018.4
20260903063655 75 245 0.9 0.9 0.00 0.00 0.00 97 1018.4
20260903063149 75 158 0.9 1.7 0.00 0.00 0.00 97 1018.5
20260903062646 75 159 0.0 0.0 0.00 0.00 0.00 97 1018.4
20260903062140 75 159 0.0 0.0 0.00 0.00 0.00 97 1018.5
20260903061635 75 171 0.0 0.9 0.00 0.00 0.00 97 1018.4
20260903061134 75 151 0.9 1.7 0.00 0.00 0.00 97 1018.6
20260903060630 75 163 0.0 0.9 0.00 0.00 0.00 97 1018.6
20260903060125 75 184 0.0 0.0 0.00 0.00 0.00 97 1018.4
20260903055622 75 184 0.0 0.0 0.00 0.00 0.00 97 1018.5
20260903055121 75 185 0.0 1.7 0.00 0.00 0.00 97 1018.6
20260903054616 76 147 1.7 1.7 0.00 0.00 0.00 96 1018.7
20260903054112 76 142 0.9 0.9 0.00 0.00 0.00 96 1018.8
20260903053607 76 149 0.9 0.9 0.00 0.00 0.00 95 1019.0
20260903053103 76 138 0.9 2.6 0.00 0.00 0.00 95 1018.8
20260903052559 76 172 0.9 1.7 0.00 0.00 0.00 95 1018.9
20260903052054 76 176 1.7 1.7 0.00 0.00 0.00 95 1018.8
20260903051549 76 252 0.9 1.7 0.00 0.00 0.00 95 1018.8
20260903051044 76 219 0.9 0.9 0.00 0.00 0.00 95 1018.8
20260903050544 76 162 0.0 2.6 0.00 0.00 0.00 95 1018.8
20260903050039 76 209 0.0 1.7 0.00 0.00 0.00 95 1018.9
20260903045538 76 181 0.0 1.7 0.00 0.00 0.00 95 1018.9
20260903045036 77 186 0.9 1.7 0.00 0.00 0.00 94 1018.7
20260903044531 77 138 1.7 1.7 0.00 0.00 0.00 94 1018.9
20260903044026 77 162 0.9 1.7 0.00 0.00 0.00 94 1019.0
20260903043522 77 168 0.9 1.7 0.00 0.00 0.00 94 1018.9
20260903043022 77 272 0.0 1.7 0.00 0.00 0.00 95 1018.9
20260903042522 77 203 0.9 1.7 0.00 0.00 0.00 95 1018.9
20260903042018 77 190 0.9 0.9 0.00 0.00 0.00 95 1018.9
20260903041514 77 220 0.0 0.0 0.00 0.00 0.00 95 1018.8
20260903041009 77 266 0.0 0.0 0.00 0.00 0.00 96 1018.7
20260903040508 77 92 0.0 0.9 0.00 0.00 0.00 96 1018.4
20260903040008 77 187 0.0 0.0 0.00 0.00 0.00 96 1018.4
20260903035500 77 145 1.7 1.7 0.00 0.00 0.00 96 1018.6
20260903034955 77 177 0.0 0.0 0.00 0.00 0.00 96 1018.8
20260903034450 77 156 0.0 0.9 0.00 0.00 0.00 96 1018.7
20260903033949 77 147 0.0 0.9 0.00 0.00 0.00 96 1018.4
20260903033445 77 223 0.0 1.7 0.00 0.00 0.00 95 1018.4
20260903032940 77 134 0.0 0.0 0.00 0.00 0.00 95 1018.2
20260903032436 77 154 0.0 0.0 0.00 0.00 0.00 95 1018.3
20260903031931 77 148 0.9 1.7 0.00 0.00 0.00 95 1018.2
20260903031431 77 144 0.9 0.9 0.00 0.00 0.00 95 1018.5
20260903030926 77 67 0.0 0.0 0.00 0.00 0.00 95 1018.6
20260903030422 77 136 0.0 0.9 0.00 0.00 0.00 95 1018.4
20260903025918 77 159 0.0 0.0 0.00 0.00 0.00 95 1018.4
20260903025413 77 127 0.9 1.7 0.00 0.00 0.00 94 1018.4
20260903024908 77 147 0.0 0.0 0.00 0.00 0.00 94 1018.7
20260903024402 77 127 0.9 0.9 0.00 0.00 0.00 94 1018.5
20260903023857 77 142 0.9 0.9 0.00 0.00 0.00 94 1018.7
20260903023353 77 165 0.0 0.0 0.00 0.00 0.00 94 1018.6
20260903022848 77 79 0.0 0.9 0.00 0.00 0.00 93 1018.6
20260903022347 78 125 0.9 1.7 0.00 0.00 0.00 93 1018.8
20260903021846 78 173 0.9 1.7 0.00 0.00 0.00 92 1018.7
20260903021342 78 170 0.9 1.7 0.00 0.00 0.00 92 1018.7
20260903020841 78 187 0.0 0.9 0.00 0.00 0.00 92 1018.9
20260903020337 78 184 0.9 1.7 0.00 0.00 0.00 92 1018.9
20260903015831 78 174 0.9 1.7 0.00 0.00 0.00 91 1019.0
20260903015326 78 150 0.0 0.9 0.00 0.00 0.00 91 1019.1
20260903014822 78 203 0.9 1.7 0.00 0.00 0.00 91 1019.0
20260903014316 78 187 0.0 0.9 0.00 0.00 0.00 91 1019.1
20260903013811 79 172 0.0 0.9 0.00 0.00 0.00 91 1019.0
20260903013309 79 140 0.0 1.7 0.00 0.00 0.00 91 1019.0
20260903012808 79 158 0.9 0.9 0.00 0.00 0.00 90 1019.1
20260903012258 80 155 0.9 0.9 0.00 0.00 0.00 89 1019.0
20260903011757 80 178 0.9 1.7 0.00 0.00 0.00 89 1019.2
20260903011256 80 202 1.7 1.7 0.00 0.00 0.00 88 1019.0
20260903010752 80 123 0.0 1.7 0.00 0.00 0.00 87 1018.9
20260903010247 81 143 0.0 0.9 0.00 0.00 0.00 87 1018.7
20260903005746 81 138 0.9 1.7 0.00 0.00 0.00 86 1018.9
20260903005241 81 159 0.0 1.7 0.00 0.00 0.00 86 1019.0
20260903004736 81 132 0.9 1.7 0.00 0.00 0.00 85 1018.6
20260903004232 81 235 0.0 0.0 0.00 0.00 0.00 86 1018.8
20260903003727 81 162 0.9 1.7 0.00 0.00 0.00 86 1018.6
20260903003223 81 272 0.0 0.9 0.00 0.00 0.00 86 1018.5
20260903002717 81 133 0.9 1.7 0.00 0.00 0.00 85 1018.5
20260903002211 82 119 1.7 1.7 0.00 0.00 0.00 85 1018.4
20260903001707 82 159 0.0 0.0 0.00 0.00 0.00 82 1018.5
20260903001201 82 232 0.0 0.0 0.00 0.00 0.00 82 1018.7
20260903000657 82 159 0.0 0.0 0.00 0.00 0.00 82 1018.6
20260903000155 83 123 0.9 0.9 0.00 0.00 0.00 81 1018.5
20260902235654 83 133 0.9 1.7 0.00 0.00 0.00 80 1018.7
20260902235144 83 166 0.9 0.9 0.00 0.00 0.00 80 1018.5
20260902234643 83 111 0.9 1.7 0.00 0.00 0.00 80 1018.5
20260902234142 84 105 1.7 2.6 0.00 0.00 0.00 79 1018.4
20260902233638 84 127 1.7 1.7 0.00 0.00 0.00 79 1018.3
20260902233137 84 242 0.0 0.0 0.00 0.00 0.00 80 1018.1
20260902232636 84 125 1.7 1.7 0.00 0.00 0.00 80 1018.6
20260902232136 85 129 0.9 1.7 0.00 0.00 0.00 79 1018.5
20260902231636 85 94 0.9 0.9 0.00 0.00 0.00 78 1018.8
20260902231130 85 20 0.9 1.7 0.00 0.00 0.00 78 1018.8
20260902230626 85 55 0.0 0.0 0.00 0.00 0.00 78 1019.2
20260902230124 85 229 0.0 2.6 0.00 0.00 0.00 77 1019.3
20260902225620 85 190 1.7 1.7 0.00 0.00 0.00 78 1019.0
20260902225119 84 232 0.0 1.7 0.00 0.00 0.00 78 1018.7
20260902224618 84 248 0.0 0.9 0.00 0.00 0.00 78 1018.6
20260902224114 84 147 0.0 1.7 0.00 0.00 0.00 77 1018.5
20260902223610 84 178 0.0 1.7 0.00 0.00 0.00 76 1019.0
20260902223109 85 358 1.7 1.7 0.00 0.00 0.00 74 1019.0
20260902222608 85 340 0.0 0.9 0.00 0.00 0.00 73 1019.1
20260902222107 85 119 0.0 0.0 0.00 0.00 0.00 72 1019.2
20260902221601 85 194 0.0 0.9 0.00 0.00 0.00 70 1019.3
20260902221056 85 140 0.9 1.7 0.00 0.00 0.00 69 1019.3
20260902220552 86 57 0.9 2.6 0.00 0.00 0.00 69 1018.8
20260902220046 86 141 1.7 1.7 0.00 0.00 0.00 67 1018.7
20260902215542 87 35 0.9 0.9 0.00 0.00 0.00 66 1018.8
20260902215037 87 255 1.7 2.6 0.00 0.00 0.00 65 1019.0
20260902214532 87 20 1.7 2.6 0.00 0.00 0.00 65 1018.9
20260902214031 87 329 0.0 2.6 0.00 0.00 0.00 65 1018.8
20260902213527 88 226 0.9 5.2 0.00 0.00 0.00 64 1018.9
20260902213026 89 227 6.1 9.6 0.00 0.00 0.00 62 1018.8
20260902212522 89 155 3.5 4.3 0.00 0.00 0.00 62 1018.8
20260902212018 90 210 4.3 5.2 0.00 0.00 0.00 61 1018.6
20260902211514 90 26 0.9 4.3 0.00 0.00 0.00 63 1018.5
20260902211009 91 78 1.7 4.3 0.00 0.00 0.00 62 1018.5
20260902210508 91 176 0.9 4.3 0.00 0.00 0.00 62 1018.5
20260902210008 92 299 0.0 3.5 0.00 0.00 0.00 62 1018.4
20260902205502 93 277 1.7 2.6 0.00 0.00 0.00 60 1018.2
20260902204958 94 247 2.6 3.5 0.00 0.00 0.00 56 1018.5
20260902204457 94 282 3.5 8.7 0.00 0.00 0.00 56 1018.3
20260902203952 94 293 1.7 1.7 0.00 0.00 0.00 57 1018.4
20260902203448 95 25 2.6 7.0 0.00 0.00 0.00 55 1018.6
20260902202946 95 218 2.6 4.3 0.00 0.00 0.00 54 1018.5
20260902202443 95 344 1.7 4.3 0.00 0.00 0.00 54 1018.3
20260902201939 95 270 1.7 2.6 0.00 0.00 0.00 53 1018.3
20260902201434 96 336 1.7 3.5 0.00 0.00 0.00 52 1018.5
20260902200934 96 285 1.7 1.7 0.00 0.00 0.00 51 1018.7
20260902200430 96 315 0.0 1.7 0.00 0.00 0.00 51 1018.6
20260902195925 95 259 0.9 6.1 0.00 0.00 0.00 49 1018.5
20260902195420 96 281 4.3 5.2 0.00 0.00 0.00 49 1018.7
20260902194914 96 277 2.6 6.1 0.00 0.00 0.00 50 1018.6
20260902194414 95 266 5.2 5.2 0.00 0.00 0.00 51 1018.4
20260902193909 95 202 0.9 1.7 0.00 0.00 0.00 52 1018.6
20260902193405 96 265 0.0 2.6 0.00 0.00 0.00 50 1018.5
20260902192903 96 186 0.9 5.2 0.00 0.00 0.00 51 1018.3
20260902192403 96 243 4.3 4.3 0.00 0.00 0.00 51 1018.4
20260902191856 96 320 1.7 3.5 0.00 0.00 0.00 50 1018.5
20260902191352 96 159 0.0 2.6 0.00 0.00 0.00 52 1018.7
20260902190847 95 174 2.6 4.3 0.00 0.00 0.00 52 1018.4
20260902190347 95 9 2.6 2.6 0.00 0.00 0.00 52 1018.6
20260902185843 96 331 1.7 2.6 0.00 0.00 0.00 52 1018.8
20260902185338 94 261 0.9 2.6 0.00 0.00 0.00 54 1018.9
20260902184834 94 272 0.0 0.9 0.00 0.00 0.00 56 1018.8
20260902184329 94 157 0.0 2.6 0.00 0.00 0.00 54 1018.9
20260902183825 94 194 1.7 4.3 0.00 0.00 0.00 55 1019.1
20260902183321 95 281 3.5 5.2 0.00 0.00 0.00 53 1019.2
20260902182817 95 190 0.9 1.7 0.00 0.00 0.00 54 1019.2
20260902182313 95 203 0.0 5.2 0.00 0.00 0.00 54 1019.1
20260902181809 95 201 0.9 4.3 0.00 0.00 0.00 53 1019.2
20260902181309 95 345 1.7 2.6 0.00 0.00 0.00 53 1019.0
20260902180804 95 148 1.7 4.3 0.00 0.00 0.00 54 1019.1
20260902180300 95 268 0.9 3.5 0.00 0.00 0.00 54 1019.4
20260902175755 95 271 1.7 3.5 0.00 0.00 0.00 53 1019.3
20260902175250 95 230 1.7 4.3 0.00 0.00 0.00 53 1019.4
20260902174746 95 252 1.7 4.3 0.00 0.00 0.00 51 1019.3
20260902174242 94 279 2.6 2.6 0.00 0.00 0.00 54 1019.4
20260902173737 94 151 1.7 2.6 0.00 0.00 0.00 52 1019.3
20260902173237 94 291 2.6 4.3 0.00 0.00 0.00 54 1019.4
20260902172732 94 64 0.0 4.3 0.00 0.00 0.00 53 1019.2
20260902172232 94 243 3.5 4.3 0.00 0.00 0.00 54 1019.1
20260902171727 93 207 4.3 4.3 0.00 0.00 0.00 53 1019.4
20260902171222 93 163 7.0 7.8 0.00 0.00 0.00 53 1019.3
20260902170718 93 249 3.5 5.2 0.00 0.00 0.00 54 1019.3
20260902170214 94 150 0.9 4.3 0.00 0.00 0.00 54 1019.2
20260902165713 93 217 1.7 2.6 0.00 0.00 0.00 54 1019.3
20260902165209 93 230 3.5 3.5 0.00 0.00 0.00 54 1019.2
20260902164709 93 202 4.3 5.2 0.00 0.00 0.00 54 1019.3
20260902164203 93 182 0.0 2.6 0.00 0.00 0.00 54 1019.4
20260902163658 93 211 0.0 3.5 0.00 0.00 0.00 54 1019.3
20260902163157 93 232 2.6 4.3 0.00 0.00 0.00 55 1019.4
20260902162656 93 127 2.6 2.6 0.00 0.00 0.00 55 1019.3
20260902162150 92 236 0.0 4.3 0.00 0.00 0.00 56 1019.3
20260902161646 92 127 0.9 3.5 0.00 0.00 0.00 56 1019.6
20260902161141 92 252 1.7 2.6 0.00 0.00 0.00 56 1019.1
20260902160638 92 247 0.0 3.5 0.00 0.00 0.00 56 1019.5